Location: Catacaguana
(10.4120°N, 66.7591°W)
Time: 05:32:14
(UTC+00:00)

Genesis I - Pass Details

Date: 27 May 2022
Orbit: 463 x 544 km, 64.5° (Epoch: 24 June)

Event Time Altitude Azimuth Distance (km) Brightness Sun altitude
Rises 09:05:15 0° 336° (NNW) 2,646 6.8 -14.1°
Reaches altitude 10° 09:07:28 10° 335° (NNW) 1,746 5.9 -13.6°
Maximum altitude 09:11:22 81° 248° (WSW) 518 3.0 -12.7°
Drops below altitude 10° 09:15:10 10° 160° (SSE) 1,697 5.8 -11.9°
Sets 09:17:17 0° 159° (SSE) 2,565 6.7 -11.4°
